TimeEST,TemperatureF,Dew PointF,Humidity,Sea Level PressureIn,VisibilityMPH,Wind Direction,Wind SpeedMPH,Gust SpeedMPH,PrecipitationIn,Events,Conditions,WindDirDegrees,DateUTC
12:15 AM,45.9,45.7,99,29.62,7.0,SSE,16.1,-,0.02,Rain,Light Rain,160,2014-01-11 05:15:00
12:35 AM,45.9,45.7,99,29.63,10.0,South,12.7,-,0.03,Rain,Light Rain,180,2014-01-11 05:35:00
12:55 AM,45.5,45.5,100,29.62,7.0,South,12.7,-,0.04,,Light Drizzle,180,2014-01-11 05:55:00
1:15 AM,45.0,44.8,99,29.62,5.0,South,10.4,-,N/A,,Overcast,180,2014-01-11 06:15:00
1:35 AM,44.2,44.2,100,29.61,5.0,South,6.9,-,N/A,,Overcast,180,2014-01-11 06:35:00
1:55 AM,43.0,43.0,100,29.59,0.8,SSE,5.8,-,N/A,,Overcast,160,2014-01-11 06:55:00
2:15 AM,42.4,42.4,100,29.59,0.2,South,6.9,-,N/A,Fog,Fog,170,2014-01-11 07:15:00
2:35 AM,43.2,43.2,100,29.57,0.5,South,6.9,-,N/A,Rain,Light Rain,170,2014-01-11 07:35:00
2:55 AM,42.4,42.4,100,29.57,0.5,South,5.8,-,N/A,Fog,Fog,170,2014-01-11 07:55:00
3:15 AM,42.3,42.3,100,29.57,0.2,South,6.9,-,0.01,Rain,Light Rain,180,2014-01-11 08:15:00
3:35 AM,43.9,43.9,100,29.56,1.2,South,9.2,-,0.02,Rain,Light Rain,190,2014-01-11 08:35:00
3:55 AM,45.5,45.5,100,29.54,10.0,South,11.5,-,0.02,,Light Drizzle,180,2014-01-11 08:55:00
4:15 AM,45.9,45.9,100,29.54,10.0,South,10.4,-,N/A,,Overcast,180,2014-01-11 09:15:00
4:35 AM,46.4,46.4,100,29.53,10.0,South,10.4,-,N/A,,Overcast,190,2014-01-11 09:35:00
4:55 AM,47.3,47.3,100,29.53,4.0,SSW,10.4,-,0.02,Rain,Rain,200,2014-01-11 09:55:00
5:15 AM,48.2,48.2,100,29.53,7.0,SW,16.1,-,N/A,Rain,Light Rain,220,2014-01-11 10:15:00
5:35 AM,48.4,48.4,100,29.53,10.0,SW,13.8,21.9,N/A,,Overcast,230,2014-01-11 10:35:00
5:55 AM,48.0,47.7,99,29.53,10.0,SW,12.7,19.6,N/A,,Overcast,230,2014-01-11 10:55:00
6:15 AM,47.5,47.3,99,29.54,10.0,WSW,15.0,20.7,N/A,,Overcast,250,2014-01-11 11:15:00
6:35 AM,47.3,46.4,97,29.55,10.0,WSW,12.7,-,N/A,,Overcast,250,2014-01-11 11:35:00
6:55 AM,46.6,46.0,98,29.55,10.0,WSW,10.4,17.3,N/A,,Overcast,250,2014-01-11 11:55:00
7:15 AM,46.2,45.5,97,29.54,10.0,West,11.5,-,N/A,,Overcast,260,2014-01-11 12:15:00
7:35 AM,45.9,45.0,97,29.55,10.0,WSW,10.4,-,N/A,,Overcast,250,2014-01-11 12:35:00
7:55 AM,45.5,44.4,96,29.56,10.0,West,13.8,-,N/A,,Overcast,260,2014-01-11 12:55:00
8:15 AM,44.2,42.6,94,29.57,10.0,West,10.4,-,N/A,,Overcast,280,2014-01-11 13:15:00
8:35 AM,43.7,41.2,91,29.59,10.0,West,10.4,-,N/A,,Overcast,270,2014-01-11 13:35:00
8:55 AM,43.0,40.6,91,29.60,10.0,WSW,12.7,21.9,N/A,,Overcast,250,2014-01-11 13:55:00
9:15 AM,41.9,39.2,90,29.61,10.0,WSW,15.0,21.9,N/A,,Mostly Cloudy,250,2014-01-11 14:15:00
9:35 AM,41.7,38.5,88,29.62,10.0,West,12.7,21.9,N/A,,Overcast,260,2014-01-11 14:35:00
9:55 AM,41.5,38.5,89,29.63,10.0,West,15.0,-,N/A,,Overcast,260,2014-01-11 14:55:00
10:15 AM,41.2,37.2,86,29.64,10.0,West,12.7,21.9,N/A,,Overcast,270,2014-01-11 15:15:00
10:35 AM,40.8,36.7,85,29.65,10.0,West,15.0,-,N/A,,Overcast,270,2014-01-11 15:35:00
10:55 AM,40.3,36.7,87,29.66,10.0,West,13.8,18.4,N/A,,Overcast,260,2014-01-11 15:55:00
11:15 AM,40.1,36.9,88,29.66,10.0,West,12.7,-,N/A,,Overcast,260,2014-01-11 16:15:00
11:35 AM,40.1,36.9,88,29.66,10.0,West,13.8,17.3,N/A,,Overcast,260,2014-01-11 16:35:00
11:55 AM,40.1,36.3,86,29.67,10.0,West,13.8,-,N/A,,Overcast,260,2014-01-11 16:55:00
12:15 PM,40.1,35.8,85,29.68,10.0,WSW,12.7,21.9,N/A,,Overcast,250,2014-01-11 17:15:00
12:35 PM,39.4,36.1,88,29.68,10.0,West,12.7,-,N/A,,Overcast,260,2014-01-11 17:35:00
12:55 PM,38.7,35.1,87,29.68,10.0,West,17.3,20.7,N/A,,Overcast,260,2014-01-11 17:55:00
1:15 PM,37.9,34.2,86,29.68,10.0,West,16.1,-,N/A,,Overcast,270,2014-01-11 18:15:00
1:35 PM,37.6,34.2,87,29.68,10.0,West,16.1,21.9,N/A,,Overcast,270,2014-01-11 18:35:00
1:55 PM,37.4,34.0,87,29.68,10.0,West,10.4,21.9,N/A,,Overcast,270,2014-01-11 18:55:00
2:15 PM,37.2,33.8,87,29.68,10.0,West,11.5,19.6,N/A,,Overcast,270,2014-01-11 19:15:00
2:35 PM,37.0,34.2,89,29.68,10.0,West,12.7,-,N/A,,Overcast,260,2014-01-11 19:35:00
2:55 PM,36.7,33.8,89,29.69,10.0,WSW,12.7,19.6,N/A,,Overcast,250,2014-01-11 19:55:00
3:15 PM,36.7,33.8,89,29.70,10.0,West,11.5,18.4,N/A,,Overcast,270,2014-01-11 20:15:00
3:35 PM,36.9,33.3,87,29.71,10.0,West,13.8,-,N/A,,Overcast,270,2014-01-11 20:35:00
3:55 PM,36.7,33.6,89,29.72,10.0,West,11.5,-,N/A,,Overcast,260,2014-01-11 20:55:00
4:15 PM,36.9,33.8,89,29.72,10.0,West,12.7,-,N/A,,Overcast,260,2014-01-11 21:15:00
4:35 PM,37.0,33.8,88,29.73,10.0,West,11.5,16.1,N/A,,Overcast,260,2014-01-11 21:35:00
4:55 PM,37.0,33.4,87,29.74,10.0,WSW,10.4,17.3,N/A,,Overcast,250,2014-01-11 21:55:00
5:15 PM,36.9,33.4,87,29.75,10.0,WSW,9.2,-,N/A,,Overcast,250,2014-01-11 22:15:00
5:35 PM,36.5,32.9,87,29.75,10.0,WSW,9.2,-,N/A,,Mostly Cloudy,250,2014-01-11 22:35:00
5:55 PM,35.2,32.5,90,29.75,10.0,WSW,6.9,-,N/A,,Scattered Clouds,240,2014-01-11 22:55:00
6:15 PM,34.7,32.5,92,29.76,10.0,SW,6.9,-,N/A,,Clear,230,2014-01-11 23:15:00
6:35 PM,34.7,32.5,92,29.77,10.0,SW,5.8,-,N/A,,Clear,220,2014-01-11 23:35:00
6:55 PM,34.9,32.7,92,29.77,10.0,SSW,5.8,-,N/A,,Clear,210,2014-01-11 23:55:00
7:15 PM,35.1,32.7,91,29.79,10.0,SW,6.9,-,N/A,,Clear,220,2014-01-12 00:15:00
7:35 PM,34.9,32.9,92,29.79,10.0,SW,6.9,-,N/A,,Clear,220,2014-01-12 00:35:00
7:55 PM,35.1,32.9,92,29.79,10.0,SSW,6.9,-,N/A,,Clear,200,2014-01-12 00:55:00
8:15 PM,35.1,32.9,92,29.80,10.0,SSW,9.2,-,N/A,,Clear,210,2014-01-12 01:15:00
8:35 PM,35.6,32.9,90,29.81,10.0,SW,8.1,-,N/A,,Clear,220,2014-01-12 01:35:00
8:55 PM,35.4,32.9,91,29.81,10.0,SW,6.9,-,N/A,,Clear,220,2014-01-12 01:55:00
9:15 PM,35.6,32.9,90,29.82,10.0,SW,8.1,-,N/A,,Clear,220,2014-01-12 02:15:00
9:35 PM,35.6,32.5,89,29.82,10.0,SW,5.8,-,N/A,,Clear,220,2014-01-12 02:35:00
9:55 PM,36.1,32.5,87,29.83,10.0,WSW,8.1,-,N/A,,Clear,240,2014-01-12 02:55:00
10:15 PM,36.5,32.4,85,29.84,10.0,WSW,8.1,-,N/A,,Clear,250,2014-01-12 03:15:00
10:35 PM,36.5,32.2,84,29.85,10.0,WSW,9.2,-,N/A,,Clear,250,2014-01-12 03:35:00
10:55 PM,35.8,32.0,86,29.86,10.0,WSW,9.2,-,N/A,,Scattered Clouds,250,2014-01-12 03:55:00
11:15 PM,35.8,32.0,86,29.86,10.0,West,10.4,-,N/A,,Scattered Clouds,260,2014-01-12 04:15:00
11:35 PM,36.0,32.0,86,29.87,10.0,West,10.4,-,N/A,,Clear,260,2014-01-12 04:35:00
11:55 PM,35.8,32.0,86,29.87,10.0,West,10.4,-,N/A,,Clear,260,2014-01-12 04:55:00